N184JS KBHM-KBHM

Flight info

Callsign N184JS
Flight time 0h 1m
Altitude VFR
Route PATTERN
Aircraft F4/M-VGD/C

Departure

Time 2026-04-24 21:33
Airport Birmingham-Shuttlesworth International Airport (KBHM)

Arrival

Time 2026-04-24 21:34
Airport Birmingham-Shuttlesworth International Airport (KBHM)
Time Latitude Longitude Altitude Speed Heading
2026-04-24 21:32 33.54222 -86.80036 1649 ft 441 kts 238°
2026-04-24 21:32 33.52249 -86.82753 800 ft 471 kts 231°
2026-04-24 21:33 33.48958 -86.83019 2814 ft 554 kts 163°
2026-04-24 21:33 33.45822 -86.81557 8850 ft 540 kts 158°
2026-04-24 21:33 33.42903 -86.80453 8298 ft 226 kts 209°
2026-04-24 21:33 33.41427 -86.80376 2512 ft 388 kts 200°
2026-04-24 21:34 33.41282 -86.80450 566 ft 0 kts 270°
2026-04-24 21:34 33.41282 -86.80451 566 ft 0 kts 270°
2026-04-24 21:34 33.57047 -86.73816 659 ft 0 kts 356°
2026-04-24 21:35 33.57048 -86.73816 659 ft 1 kts 353°
2026-04-24 21:35 33.57087 -86.73909 655 ft 14 kts 319°
2026-04-24 21:36 33.57146 -86.73909 656 ft 7 kts 39°
2026-04-24 21:36 33.57213 -86.73837 661 ft 19 kts
2026-04-24 21:36 33.57268 -86.73863 661 ft 13 kts 325°
2026-04-24 21:36 33.57178 -86.74212 647 ft 115 kts 236°
2026-04-24 21:37 33.56392 -86.75580 654 ft 274 kts 234°
2026-04-24 21:37 33.54948 -86.77813 1153 ft 408 kts 197°
2026-04-24 21:37 33.52911 -86.75660 2517 ft 507 kts 104°
2026-04-24 21:37 33.54378 -86.71639 3488 ft 623 kts 48°
2026-04-24 21:38 33.57610 -86.68308 3110 ft 543 kts 14°
2026-04-24 21:38 33.60125 -86.69468 1171 ft 368 kts 258°
2026-04-24 21:38 33.58755 -86.71516 1045 ft 315 kts 226°
2026-04-24 21:38 33.57642 -86.73415 762 ft 253 kts 238°
2026-04-24 21:39 33.56733 -86.74984 647 ft 211 kts 235°
2026-04-24 21:39 33.55956 -86.76316 621 ft 192 kts 234°
2026-04-24 21:39 33.54858 -86.78052 942 ft 322 kts 229°
2026-04-24 21:39 33.52441 -86.79103 1366 ft 456 kts 148°
2026-04-24 21:40 33.51309 -86.75419 3593 ft 563 kts 81°
2026-04-24 21:40 33.54179 -86.72411 3612 ft 667 kts 15°
2026-04-24 21:40 33.58218 -86.71370 2699 ft 472 kts
2026-04-24 21:40 33.60785 -86.71479 2972 ft 340 kts 330°
2026-04-24 21:41 33.61226 -86.72352 771 ft 7 kts 294°
2026-04-24 21:41 33.61262 -86.72435 3124 ft 107 kts 290°
2026-04-24 21:41 33.61294 -86.72652 621 ft 0 kts 268°
2026-04-24 21:41 33.61224 -86.72897 2145 ft 92 kts 192°
2026-04-24 21:42 33.60477 -86.73086 6754 ft 271 kts 204°
2026-04-24 21:42 33.59134 -86.73650 2287 ft 370 kts 181°
2026-04-24 21:42 33.57017 -86.74254 888 ft 275 kts 237°
2026-04-24 21:42 33.56127 -86.76019 657 ft 225 kts 239°
2026-04-24 21:43 33.55777 -86.76622 617 ft 1 kts 181°
2026-04-24 21:43 33.55776 -86.76622 617 ft 0 kts 232°
2026-04-24 21:43 33.55773 -86.76627 617 ft 0 kts 237°
2026-04-24 21:43 33.55726 -86.76723 616 ft 55 kts 244°
2026-04-24 21:44 33.55310 -86.77502 615 ft 157 kts 244°
2026-04-24 21:44 33.54884 -86.78470 591 ft 11 kts 208°
2026-04-24 21:44 33.54833 -86.78502 3950 ft 65 kts 209°
2026-04-24 21:44 33.53486 -86.79431 2436 ft 241 kts 207°
2026-04-24 21:45 33.51756 -86.79575 2188 ft 274 kts 151°
2026-04-24 21:45 33.51006 -86.77634 3170 ft 283 kts 86°
2026-04-24 21:45 33.51027 -86.75108 3229 ft 368 kts 89°
2026-04-24 21:45 33.52704 -86.72411 3929 ft 494 kts 27°
2026-04-24 21:46 33.55960 -86.71513 4453 ft 439 kts 314°
2026-04-24 21:46 33.55474 -86.73699 4644 ft 302 kts 174°
2026-04-24 21:46 33.54362 -86.72272 4753 ft 245 kts 78°
2026-04-24 21:46 33.55284 -86.70653 3135 ft 287 kts 33°
2026-04-24 21:47 33.57168 -86.69653 1658 ft 314 kts
2026-04-24 21:47 33.58801 -86.70932 1612 ft 338 kts 277°
2026-04-24 21:47 33.57540 -86.73903 927 ft 534 kts 229°
2026-04-24 21:47 33.54870 -86.77868 1628 ft 626 kts 236°
2026-04-24 21:48 33.51196 -86.79907 4041 ft 660 kts 170°
2026-04-24 21:48 33.46658 -86.78191 4762 ft 708 kts 156°
2026-04-24 21:48 33.45832 -86.73837 3388 ft 660 kts 50°
2026-04-24 21:48 33.49368 -86.70682 7483 ft 669 kts 16°
2026-04-24 21:49 33.54047 -86.69588 6513 ft 711 kts
2026-04-24 21:49 33.58006 -86.69575 3033 ft 514 kts 326°
2026-04-24 21:49 33.58201 -86.72535 1119 ft 357 kts 237°
2026-04-24 21:49 33.56881 -86.74700 669 ft 285 kts 237°
2026-04-24 21:50 33.55930 -86.76401 623 ft 194 kts 236°
2026-04-24 21:50 33.55151 -86.77634 826 ft 249 kts 234°
2026-04-24 21:50 33.53709 -86.79786 2157 ft 427 kts 230°
2026-04-24 21:50 33.50740 -86.79805 3076 ft 599 kts 111°
2026-04-24 21:51 33.51685 -86.74710 4360 ft 664 kts 71°
2026-04-24 21:51 33.53640 -86.71131 3081 ft 422 kts 30°
2026-04-24 21:51 33.55896 -86.70011 2765 ft 305 kts 18°
2026-04-24 21:51 33.57727 -86.70267 1635 ft 241 kts 321°
2026-04-24 21:52 33.58506 -86.71709 1205 ft 187 kts 263°
2026-04-24 21:52 33.57915 -86.72971 902 ft 180 kts 233°
2026-04-24 21:52 33.57238 -86.74093 677 ft 152 kts 237°
2026-04-24 21:52 33.56689 -86.75052 630 ft 124 kts 236°
2026-04-24 21:53 33.56370 -86.75613 622 ft 35 kts 232°
2026-04-24 21:53 33.56149 -86.75861 617 ft 57 kts 210°
2026-04-24 21:53 33.55801 -86.75800 611 ft 52 kts 155°
2026-04-24 21:53 33.55590 -86.75844 613 ft 8 kts 274°
2026-04-24 21:54 33.55621 -86.75909 612 ft 14 kts 271°
2026-04-24 21:54 33.55622 -86.75925 612 ft 0 kts 278°
2026-04-24 21:54 33.55622 -86.75928 612 ft 0 kts 274°